Regional Weather Roundup
Issued by NWS Upton, NY

Current Version | Previous Version | Graphics & Text | Print | Product List | Glossary Off
Versions: 1 2 3 4 5 6 7 8 9 10 11 12 13 14 15 16 17 18 19 20 21 22 23 24 25 26 27 28 29 30 31 32 33 34 35 36 37 38 39 40 41 42 43 44 45 46 47 48 49 50

000
ASUS41 KOKX 030608
RWROKX

REGIONAL WEATHER ROUNDUP
NATIONAL WEATHER SERVICE NEW YORK NY
100 AM EST SAT DEC 03 2016

NOTE: "FAIR" INDICATES FEW OR NO CLOUDS BELOW 12,000 FEET WITH NO
SIGNIFICANT WEATHER AND/OR OBSTRUCTIONS TO VISIBILITY.

NYZ071-072-176-178-NJZ106-104-030700-
NEW YORK CITY METRO AREA

CITY           SKY/WX    TMP DP  RH WIND       PRES   REMARKS
Central Park   CLOUDY    44  29  55 VRB6      29.93S
Wall St Helipt CLOUDY    45  33  63 W15G22    29.93S
Bronx Bot Gard NOT AVBL
LaGuardia APRT CLOUDY    46  30  53 W14G22    29.90F
Kennedy INTL   MOCLDY    45  30  55 W17G25    29.92F
Breezy Point     N/A     43 N/A N/A W16G24      N/A
Newark/Liberty MOCLDY    43  31  62 W15       29.92F
Teterboro      CLOUDY    45  29  53 W13       29.91R
$$

NYZ177-179-078>081-030700-
LONG ISLAND NEW YORK

CITY           SKY/WX    TMP DP  RH WIND       PRES   REMARKS
Jones Beach      N/A     43 N/A N/A W16G22      N/A
Matinecock PT    N/A     45 N/A N/A W20         N/A
Farmingdale    CLOUDY    45  30  55 W12       29.90S
MacArthur/ISP  NOT AVBL
Shirley        MOCLDY    44  28  53 W13G28    29.88
Westhampton    CLOUDY    43  27  53 W12G22    29.88R
Southampton    NOT AVBL
Bridgehampton  NOT AVBL
East Hampton   CLOUDY    43  30  61 W13G23    29.84S
Montauk          N/A     45  33  63 W15G28    29.83S
$$

NYZ052-065-067-030700-
HUDSON VALLEY

CITY           SKY/WX    TMP DP  RH WIND       PRES   REMARKS
White Plains   MOCLDY    43  27  53 W16       29.87
Newburgh       MOCLDY    39  32  75 NW22G29   29.88S WCI  29
Montgomery     CLOUDY    41  30  65 NW15G28   29.89R
Poughkeepsie   CLOUDY    40  29  64 W14       29.87S WCI  32
Albany         MOCLDY    37  29  72 NW14      29.85R WCI  28
$$

NJZ001-105-106-008-010-013-015-019>022-104-030700-
NEW JERSEY

CITY           SKY/WX    TMP DP  RH WIND       PRES   REMARKS
Newark/Liberty MOCLDY    43  31  62 W15       29.92F
Teterboro      CLOUDY    45  29  53 W13       29.91R
Caldwell       CLOUDY    44  30  57 VRB6      29.92S
Somerville     CLOUDY    43  30  60 W8        29.93F
Linden         CLOUDY    43  30  60 W14G20    29.93S
Sussex         CLOUDY    42  29  59 VRB6      29.91R
Andover          N/A     41  30  65 VRB3      29.91S
Trenton        MOCLDY    42  29  59 W8        29.97S
Millville      MOCLDY    42  30  62 W14       30.04S
Atlantic City  MOCLDY    43  28  55 W13G21    30.01S
Wrightstown    PTCLDY    41  29  62 W13       29.96R
Toms River     MOCLDY    41  29  62 W14       29.98F
Belmar         CLOUDY   N/A N/A N/A W12       29.96S
$$

PAZ047>061-062-071-030700-
EASTERN PENNSYLVANIA

CITY           SKY/WX    TMP DP  RH WIND       PRES   REMARKS
Philadelphia   PTCLDY    42  29  59 W15       30.02S
Allentown      CLOUDY    42  29  59 W12G21    29.96S
Scranton       LGT RAIN  38  31  76 NW16      29.95R WCI  29
$$

CTZ002-004>006-009-010-012-RIZ004-006-007-MAZ004-011-015-030700-
SOUTHERN NEW ENGLAND
 IN CT

CITY           SKY/WX    TMP DP  RH WIND       PRES   REMARKS
Bradley INTL   CLOUDY    41  29  62 NW10      29.82R
Hartford       NOT AVBL
Danbury        PTCLDY    40  27  59 W10       29.86S WCI  33
Wtrbury/Oxford MOCLDY    39  27  60 W8        29.85R WCI  34
Bridgeport     MOCLDY    44  29  55 W9G20     29.87R
Meriden        NOT AVBL
New Haven      MOCLDY    43  30  60 W9G17     29.85R
Chester        MOCLDY    41  28  60 W9G16     29.82S
Groton         MOCLDY    44  31  60 W10       29.82S
Wilimantic     MOCLDY    43  30  60 W10G16    29.81S

 IN RI

CITY           SKY/WX    TMP DP  RH WIND       PRES   REMARKS
Providence     CLOUDY    41  29  62 W12G17    29.78R
Block Island   CLOUDY    44  31  60 W17G26    29.81S
Westerly       NOT AVBL
 IN MA

CITY           SKY/WX    TMP DP  RH WIND       PRES   REMARKS
Boston         MOCLDY    42  30  62 W12       29.75R
Worcester      MOCLDY    37  27  67 W13       29.74R WCI  29
Westfield      NOT AVBL
Provincetown   PTCLDY    43  32  65 W20G25    29.73R
Nantucket      NOT AVBL
$$

ANZ330-335-338-340-345-350-353-355-030700-
COASTAL MARINE OBSERVATIONS


STATION/POSITION TIME  SKY/WX   TEMP    WIND        PRES    VSBY  WAVE
                                AIR SEA DIR/SP/G                  HT/PER
                 (UTC)          (F)     (DEG/KT/KT) (MB)    (MI)  (FT/S)
NY HARB ENTRANCE 0450            46 54  270/ 25/ 31 1012.6          5/ 4
20 S FIRE ISLAND 0450            47 54  290/ 29/ 35 1011.7          7/ 6
GREAT SOUTH BAY  0500            45 45                N/A
23 SSW MONTAUK P 0450            47 56  270/ 27/ 35 1010.4          7/ 6
15 E BARNEGAT LI 0530               54                N/A           5/ 5
HUDSON CANYON    0450            49 59              1012.4         10/ 8
KINGS POINT      0542            45 49              1012.5
EXECUTION ROCKS  0545            46     270/ 12/ 19   N/A
CENTRAL LI SOUND 0515            45 51  270/ 23/ 29   N/A           4/ 5
EASTERN LI SOUND NOT AVBL
ROBBINS REEF     0542            44     270/ 19/ 23 1013.1
$$


>>>>>>>>>>>>>>>>>>>>>>>>>>>> KEY <<<<<<<<<<<<<<<<<<<<<<<<<<<
>                                                          <
>     SKY/WX - Sky Condition/Present Weather               <
>     TMP    - Temperature in Fahrenheit                   <
>     DP     - Dew Point in Fahrenheit                     <
>     RH     - Relative Humidity in Percent                <
>     WIND   - Direction (from) and Speed in MPH           <
>     PRES   - Mean Sea Level Pressure (inches of Hg)      <
>     WCI    - Wind Chill Index                            <
>     VSB    - VISIBILITY IN MILES                         <
>     HX     - HEAT INDEX                                  <
>     TC     - TEMPERATURE IN CELSIUS                      <
>     VRB    - VARIABLE WIND DIRECTION                     <
>                                                          <
>>>>>>>>>>>>>>>>>>>>>>>>>>>> KEY <<<<<<<<<<<<<<<<<<<<<<<<<<<



USA.gov is the U.S. government's official web portal to all federal, state and local government web resources and services.